Flag Weather past 2 weeks in Worcester, Massachusetts, U.S.A.

Now
36 °F

Passing clouds.


Feels Like: 28 °F
Forecast: 36 / 50 °F
Wind: 13 mph from West

Location: Worcester Regional Airport

Current Time: Nov 23, 2014 at 6:16:23 AM

Latest Report: Nov 23, 2014 at 4:54 AM


Visibility: 10 mi

Pressure: 30.08 "Hg

Humidity: 70%

Dew point: 27 °F

Location of WorcesterLocation

Historic Weather in Worcester — Graph

°F

Worcester temperature yesterday

Maximum temperature yesterday: 38 °F (at 1:54 PM)
Minimum temperature yesterday: 19 °F (at 1:54 AM)
Average temperature yesterday: 30 °F

Past Weeks' High & Low Weather Summary

 TemperatureHumidityPressure
High63 °F (Nov 12, 12:54 PM)100% (Nov 11, 8:54 PM)30.42 "Hg (Nov 11, 8:54 PM)
Low17 °F (Nov 19, 3:54 AM)24% (Nov 22, 1:54 PM)29.43 "Hg (Nov 17, 7:59 PM)
Average36 °F63%30.02 "Hg
* Reported Nov 8 4:54 AM — Nov 23 4:54 AM, Worcester, Weather by CustomWeather, © 2014

Note: Actual official high and low records may vary slightly from our data, if they occured in-between our weather recording intervals... More about our weather records

Advertising

Worcester weather history for previous 24 hours

 ConditionsComfort  
Time TempWeatherWind HumidityBarometerVisibility
4:54 AM
Nov 23
36 °FPassing clouds.13 mph70%30.08 "Hg10 mi
3:54 AM37 °FMostly cloudy.17 mph70%30.08 "Hg10 mi
2:54 AM39 °FLight rain. Passing clouds.22 mph55%30.07 "Hg10 mi
1:54 AM40 °FPartly cloudy.23 mph49%30.08 "Hg10 mi
12:54 AM38 °FPassing clouds.22 mph48%30.06 "Hg10 mi
11:54 PM
Nov 22
38 °FClear.23 mph46%30.07 "Hg10 mi
10:54 PM38 °FClear.24 mph46%30.06 "Hg10 mi
9:54 PM37 °FClear.25 mph46%30.07 "Hg10 mi
8:54 PM37 °FClear.26 mph41%30.07 "Hg10 mi
7:54 PM36 °FClear.28 mph38%30.09 "Hg10 mi
6:54 PM35 °FClear.22 mph35%30.11 "Hg10 mi
5:54 PM35 °FOvercast.16 mph35%30.11 "Hg10 mi
4:54 PM36 °FPassing clouds.16 mph32%30.15 "Hg10 mi
3:54 PM36 °FPartly sunny.15 mph30%30.16 "Hg10 mi
2:54 PM37 °FSunny.14 mph26%30.18 "Hg10 mi
1:54 PM38 °FSunny.18 mph24%30.19 "Hg10 mi
12:54 PM35 °FSunny.17 mph27%30.23 "Hg10 mi
11:54 AM35 °FSunny.14 mph27%30.26 "Hg10 mi
10:54 AM31 °FSunny.14 mph36%30.30 "Hg10 mi
9:54 AM27 °FSunny.14 mph49%30.34 "Hg10 mi
8:54 AM26 °FSunny.18 mph50%30.36 "Hg10 mi
7:54 AM22 °FPassing clouds.17 mph60%30.39 "Hg10 mi
6:54 AM20 °FPassing clouds.14 mph62%30.39 "Hg10 mi
Weather by CustomWeather, © 2014

See weather overviewHow to use our weather pages